Powrót do katalogu

STARLINK-34507

AktywnyŁącznośćVLEO
NORAD 64437·PAYLOAD·🇺🇸 United States

Wystrzelony Jun 17, 2025 z Vandenberg Space Force Base

Loading…

Następne Przeloty (najbliższe 24 godziny)

TLE

ŚwieżeSource: CelesTrak SupGP

Epoka: Sep 15, 2026, 03:12 UTC

1 64437C 25129AB  26258.13381944  .00037211  00000+0  12941-2 0  2589
2 64437  69.9998 315.0241 0003364 269.2288 271.2394 15.29568869    13

Śledź STARLINK-34507 w czasie rzeczywistym z AllMySat

Download on the App Store